When you browse on this site, cookies collect data to enhance your experience and personalize the content and advertising you see.
Visit our Privacy Policy to learn more. By continuing to use the site, you agree to this use of cookies and data.
  • en France
  • Liste des pays
  • À 7 jours
  • Température de l'eau
  • Carte satellitaire
  • Carte météo
  • Widgets météo
  • user-avatar
    Se connecter

    Météo par heure à Bulembu

    Ce jour, 23 Mai, Jeudi

    Heure Température Précipitation Vent Pression Humidité
    00:00 +11°C° 0 mm 1 m/s 656 mmHg 90%
    01:00 +11°C° 0 mm 1 m/s 656 mmHg 88%
    02:00 +11°C° 0 mm 1 m/s 656 mmHg 87%
    03:00 +11°C° 0 mm 1 m/s 656 mmHg 82%
    04:00 +11°C° 0 mm 1 m/s 655 mmHg 77%
    05:00 +10°C° 0 mm 1 m/s 655 mmHg 72%
    06:00 +12°C° 0 mm 1 m/s 656 mmHg 63%
    07:00 +13°C° 0 mm 1 m/s 657 mmHg 55%
    08:00 +16°C° 0 mm 1 m/s 658 mmHg 44%
    09:00 +20°C° 0 mm 1 m/s 659 mmHg 36%
    10:00 +24°C° 0 mm 1 m/s 659 mmHg 29%
    11:00 +27°C° 0 mm 1 m/s 660 mmHg 21%
    12:00 +27°C° 0 mm 1 m/s 660 mmHg 21%
    13:00 +27°C° 0 mm 2 m/s 659 mmHg 21%
    14:00 +27°C° 0 mm 2 m/s 659 mmHg 23%
    15:00 +25°C° 0 mm 2 m/s 658 mmHg 30%
    16:00 +23°C° 0 mm 2 m/s 658 mmHg 37%
    17:00 +21°C° 0 mm 1 m/s 657 mmHg 43%
    18:00 +19°C° 0 mm 1 m/s 657 mmHg 51%
    19:00 +15°C° 0 mm 0 m/s 657 mmHg 59%
    20:00 +13°C° 0 mm 0 m/s 657 mmHg 67%
    21:00 +12°C° 0 mm 0 m/s 658 mmHg 70%
    22:00 +12°C° 0 mm 0 m/s 658 mmHg 73%
    23:00 +12°C° 0 mm 0 m/s 658 mmHg 76%

    Demain, 24 Mai, Vendredi

    Heure Température Précipitation Vent Pression Humidité
    00:00 +11°C° 0 mm 0 m/s 658 mmHg 78%
    01:00 +11°C° 0 mm 0 m/s 658 mmHg 81%
    02:00 +11°C° 0 mm 0 m/s 658 mmHg 83%
    03:00 +11°C° 0 mm 0 m/s 658 mmHg 82%
    04:00 +12°C° 0 mm 0 m/s 659 mmHg 82%
    05:00 +12°C° 0 mm 0 m/s 659 mmHg 81%
    06:00 +13°C° 0 mm 0 m/s 659 mmHg 78%
    07:00 +14°C° 0 mm 0 m/s 660 mmHg 75%
    08:00 +15°C° 0 mm 0 m/s 661 mmHg 72%
    09:00 +19°C° 0 mm 1 m/s 661 mmHg 63%
    10:00 +21°C° 0 mm 1 m/s 662 mmHg 55%
    11:00 +23°C° 0 mm 1 m/s 662 mmHg 46%
    12:00 +23°C° 0.1 mm 1 m/s 662 mmHg 46%
    13:00 +23°C° 0.1 mm 2 m/s 661 mmHg 45%
    14:00 +24°C° 0.1 mm 2 m/s 661 mmHg 45%
    15:00 +21°C° 0.6 mm 2 m/s 660 mmHg 54%
    16:00 +19°C° 0.6 mm 2 m/s 660 mmHg 64%
    17:00 +18°C° 0.6 mm 1 m/s 659 mmHg 74%
    18:00 +16°C° 1 mm 1 m/s 659 mmHg 80%
    19:00 +15°C° 1 mm 1 m/s 659 mmHg 87%
    20:00 +13°C° 1 mm 0 m/s 659 mmHg 94%
    21:00 +13°C° 1.4 mm 0 m/s 660 mmHg 95%
    22:00 +12°C° 1.4 mm 0 m/s 660 mmHg 95%
    23:00 +12°C° 1.4 mm 0 m/s 660 mmHg 96%

    Après-demain, 25 Mai, Samedi

    Heure Température Précipitation Vent Pression Humidité
    00:00 +12°C° 0.7 mm 0 m/s 659 mmHg 97%
    01:00 +12°C° 0.7 mm 0 m/s 659 mmHg 97%
    02:00 +11°C° 0.7 mm 0 m/s 659 mmHg 97%
    03:00 +11°C° 0.4 mm 0 m/s 659 mmHg 97%
    04:00 +11°C° 0.4 mm 0 m/s 659 mmHg 97%
    05:00 +11°C° 0.4 mm 0 m/s 658 mmHg 97%
    06:00 +12°C° 0.1 mm 0 m/s 659 mmHg 93%
    07:00 +12°C° 0.1 mm 0 m/s 659 mmHg 90%
    08:00 +13°C° 0.1 mm 0 m/s 660 mmHg 87%
    09:00 +15°C° 0.1 mm 0 m/s 660 mmHg 78%
    10:00 +17°C° 0.1 mm 0 m/s 661 mmHg 69%
    11:00 +21°C° 0.1 mm 1 m/s 661 mmHg 60%
    12:00 +21°C° 0.2 mm 1 m/s 661 mmHg 57%
    13:00 +21°C° 0.2 mm 1 m/s 660 mmHg 55%
    14:00 +21°C° 0.2 mm 1 m/s 659 mmHg 52%
    15:00 +20°C° 0 mm 1 m/s 659 mmHg 56%
    16:00 +19°C° 0 mm 1 m/s 658 mmHg 60%
    17:00 +16°C° 0 mm 1 m/s 658 mmHg 64%
    18:00 +15°C° 0 mm 1 m/s 658 mmHg 69%
    19:00 +13°C° 0 mm 0 m/s 658 mmHg 75%
    20:00 +11°C° 0 mm 0 m/s 658 mmHg 80%
    21:00 +11°C° 0 mm 0 m/s 658 mmHg 82%
    22:00 +10°C° 0 mm 0 m/s 658 mmHg 84%
    23:00 +10°C° 0 mm 0 m/s 658 mmHg 86%

    26 Mai, Dimanche

    Heure Température Précipitation Vent Pression Humidité
    00:00 +10°C° 0 mm 0 m/s 658 mmHg 88%
    01:00 +9°C° 0 mm 0 m/s 657 mmHg 89%
    02:00 +10°C° 0 mm 1 m/s 657 mmHg 90%
    03:00 +10°C° 0 mm 1 m/s 657 mmHg 91%
    04:00 +10°C° 0 mm 1 m/s 657 mmHg 91%
    05:00 +9°C° 0 mm 1 m/s 656 mmHg 92%
    06:00 +11°C° 0 mm 1 m/s 657 mmHg 86%
    07:00 +11°C° 0 mm 0 m/s 658 mmHg 80%
    08:00 +12°C° 0 mm 0 m/s 658 mmHg 74%
    09:00 +15°C° 0 mm 0 m/s 659 mmHg 63%
    10:00 +19°C° 0 mm 1 m/s 659 mmHg 53%
    11:00 +22°C° 0 mm 1 m/s 660 mmHg 43%
    12:00 +22°C° 0 mm 1 m/s 659 mmHg 39%
    13:00 +23°C° 0 mm 1 m/s 659 mmHg 36%
    14:00 +23°C° 0 mm 2 m/s 658 mmHg 32%
    15:00 +21°C° 0 mm 1 m/s 657 mmHg 38%
    16:00 +19°C° 0 mm 1 m/s 657 mmHg 43%
    17:00 +16°C° 0 mm 1 m/s 656 mmHg 48%
    18:00 +15°C° 0 mm 1 m/s 656 mmHg 53%
    19:00 +12°C° 0 mm 0 m/s 656 mmHg 59%
    20:00 +11°C° 0 mm 0 m/s 657 mmHg 64%
    21:00 +10°C° 0 mm 0 m/s 656 mmHg 66%
    22:00 +10°C° 0 mm 0 m/s 656 mmHg 67%
    23:00 +10°C° 0 mm 1 m/s 656 mmHg 69%

    27 Mai, Lundi

    Heure Température Précipitation Vent Pression Humidité
    00:00 +10°C° 0 mm 1 m/s 656 mmHg 71%
    01:00 +10°C° 0 mm 1 m/s 656 mmHg 73%
    02:00 +9°C° 0 mm 1 m/s 655 mmHg 74%
    03:00 +9°C° 0 mm 1 m/s 655 mmHg 75%
    04:00 +9°C° 0 mm 1 m/s 655 mmHg 75%
    05:00 +9°C° 0 mm 1 m/s 655 mmHg 75%
    06:00 +10°C° 0 mm 1 m/s 656 mmHg 69%
    07:00 +11°C° 0 mm 1 m/s 657 mmHg 63%
    08:00 +13°C° 0 mm 1 m/s 657 mmHg 57%
    09:00 +16°C° 0 mm 1 m/s 658 mmHg 48%
    10:00 +20°C° 0 mm 1 m/s 658 mmHg 39%
    11:00 +23°C° 0 mm 1 m/s 659 mmHg 30%
    12:00 +24°C° 0 mm 1 m/s 658 mmHg 28%
    13:00 +24°C° 0 mm 1 m/s 658 mmHg 26%
    14:00 +24°C° 0 mm 1 m/s 657 mmHg 24%
    15:00 +22°C° 0 mm 1 m/s 657 mmHg 29%
    16:00 +20°C° 0 mm 1 m/s 656 mmHg 35%
    17:00 +18°C° 0 mm 1 m/s 656 mmHg 40%
    18:00 +15°C° 0 mm 1 m/s 656 mmHg 45%
    19:00 +14°C° 0 mm 1 m/s 656 mmHg 50%
    20:00 +11°C° 0 mm 0 m/s 656 mmHg 55%
    21:00 +11°C° 0 mm 0 m/s 656 mmHg 56%
    22:00 +10°C° 0 mm 0 m/s 656 mmHg 57%
    23:00 +11°C° 0 mm 1 m/s 656 mmHg 58%

    28 Mai, Mardi

    Heure Température Précipitation Vent Pression Humidité
    00:00 +11°C° 0 mm 1 m/s 656 mmHg 59%
    01:00 +10°C° 0 mm 1 m/s 656 mmHg 60%
    02:00 +10°C° 0 mm 1 m/s 656 mmHg 61%
    03:00 +10°C° 0 mm 1 m/s 656 mmHg 63%
    04:00 +9°C° 0 mm 1 m/s 657 mmHg 64%
    05:00 +9°C° 0 mm 1 m/s 657 mmHg 65%
    06:00 +10°C° 0 mm 1 m/s 658 mmHg 64%
    07:00 +11°C° 0 mm 1 m/s 658 mmHg 62%
    08:00 +13°C° 0 mm 1 m/s 659 mmHg 60%
    09:00 +14°C° 0 mm 1 m/s 659 mmHg 57%
    10:00 +16°C° 0 mm 1 m/s 660 mmHg 54%
    11:00 +19°C° 0 mm 1 m/s 660 mmHg 50%
    12:00 +20°C° 0 mm 1 m/s 660 mmHg 47%
    13:00 +20°C° 0 mm 1 m/s 659 mmHg 45%
    14:00 +20°C° 0 mm 2 m/s 658 mmHg 42%
    15:00 +19°C° 0 mm 1 m/s 658 mmHg 48%
    16:00 +18°C° 0 mm 1 m/s 658 mmHg 55%
    17:00 +15°C° 0 mm 1 m/s 657 mmHg 61%
    18:00 +14°C° 0 mm 1 m/s 657 mmHg 67%
    19:00 +13°C° 0 mm 1 m/s 657 mmHg 72%
    20:00 +11°C° 0 mm 0 m/s 658 mmHg 77%
    21:00 +11°C° 0 mm 0 m/s 658 mmHg 79%
    22:00 +11°C° 0 mm 0 m/s 658 mmHg 81%
    23:00 +11°C° 0 mm 0 m/s 658 mmHg 83%
    Voir plus